Year,Month,Day,Hour,Minute,Value (Times are PST for temperature in C)
2011,08,17,00,00,12.10
2011,08,17,00,01,12.10
2011,08,17,00,02,12.00
2011,08,17,00,03,12.00
2011,08,17,00,04,12.00
2011,08,17,00,05,12.00
2011,08,17,00,06,11.90
2011,08,17,00,07,11.90
2011,08,17,00,08,11.90
2011,08,17,00,09,11.90
2011,08,17,00,10,11.90
2011,08,17,00,11,11.90
2011,08,17,00,12,11.90
2011,08,17,00,13,11.90
2011,08,17,00,14,11.90
2011,08,17,00,15,11.90
2011,08,17,00,16,11.90
2011,08,17,00,17,11.90
2011,08,17,00,18,11.80
2011,08,17,00,19,11.80
2011,08,17,00,20,11.80
2011,08,17,00,21,11.80
2011,08,17,00,22,11.80
2011,08,17,00,23,11.70
2011,08,17,00,24,11.70
2011,08,17,00,25,11.70
2011,08,17,00,26,11.70
2011,08,17,00,27,11.60
2011,08,17,00,28,11.60
2011,08,17,00,29,11.60
2011,08,17,00,30,11.60
2011,08,17,00,31,11.50
2011,08,17,00,32,11.50
2011,08,17,00,33,11.50
2011,08,17,00,34,11.40
2011,08,17,00,35,11.40
2011,08,17,00,36,11.40
2011,08,17,00,37,11.40
2011,08,17,00,38,11.30
2011,08,17,00,39,11.30
2011,08,17,00,40,11.30
2011,08,17,00,41,11.30
2011,08,17,00,42,11.30
2011,08,17,00,43,11.30
2011,08,17,00,44,11.30
2011,08,17,00,45,11.20
2011,08,17,00,46,11.20
2011,08,17,00,47,11.20
2011,08,17,00,48,11.20
2011,08,17,00,49,11.20
2011,08,17,00,50,11.20
2011,08,17,00,51,11.20
2011,08,17,00,52,11.10
2011,08,17,00,53,11.10
2011,08,17,00,54,11.10
2011,08,17,00,55,11.10
2011,08,17,00,56,11.10
2011,08,17,00,57,11.10
2011,08,17,00,58,11.00
2011,08,17,00,59,11.00
2011,08,17,01,00,11.00
2011,08,17,01,01,11.00
2011,08,17,01,02,11.00
2011,08,17,01,03,10.90
2011,08,17,01,04,10.90
2011,08,17,01,05,10.90
2011,08,17,01,06,10.90
2011,08,17,01,07,10.90
2011,08,17,01,08,10.90
2011,08,17,01,09,10.90
2011,08,17,01,10,10.90
2011,08,17,01,11,10.90
2011,08,17,01,12,10.90
2011,08,17,01,13,10.90
2011,08,17,01,14,10.90
2011,08,17,01,15,10.80
2011,08,17,01,16,10.80
2011,08,17,01,17,10.80
2011,08,17,01,18,10.80
2011,08,17,01,19,10.80
2011,08,17,01,20,10.80
2011,08,17,01,21,10.80
2011,08,17,01,22,10.80
2011,08,17,01,23,10.80
2011,08,17,01,24,10.80
2011,08,17,01,25,10.80
2011,08,17,01,26,10.80
2011,08,17,01,27,10.80
2011,08,17,01,28,10.70
2011,08,17,01,29,10.70
2011,08,17,01,30,10.70
2011,08,17,01,31,10.70
2011,08,17,01,32,10.70
2011,08,17,01,33,10.70
2011,08,17,01,34,10.70
2011,08,17,01,35,10.70
2011,08,17,01,36,10.70
2011,08,17,01,37,10.70
2011,08,17,01,38,10.70
2011,08,17,01,39,10.70
2011,08,17,01,40,10.70
2011,08,17,01,41,10.70
2011,08,17,01,42,10.70
2011,08,17,01,43,10.70
2011,08,17,01,44,10.70
2011,08,17,01,45,10.70
2011,08,17,01,46,10.70
2011,08,17,01,47,10.70
2011,08,17,01,48,10.60
2011,08,17,01,49,10.60
2011,08,17,01,50,10.60
2011,08,17,01,51,10.60
2011,08,17,01,52,10.60
2011,08,17,01,53,10.60
2011,08,17,01,54,10.60
2011,08,17,01,55,10.60
2011,08,17,01,56,10.60
2011,08,17,01,57,10.60
2011,08,17,01,58,10.60
2011,08,17,01,59,10.60
2011,08,17,02,00,10.60
2011,08,17,02,01,10.60
2011,08,17,02,02,10.60
2011,08,17,02,03,10.60
2011,08,17,02,04,10.60
2011,08,17,02,05,10.60
2011,08,17,02,06,10.60
2011,08,17,02,07,10.60
2011,08,17,02,08,10.60
2011,08,17,02,09,10.60
2011,08,17,02,10,10.60
2011,08,17,02,11,10.70
2011,08,17,02,12,10.70
2011,08,17,02,13,10.70
2011,08,17,02,14,10.80
2011,08,17,02,15,10.80
2011,08,17,02,16,10.80
2011,08,17,02,17,10.80
2011,08,17,02,18,10.90
2011,08,17,02,19,10.90
2011,08,17,02,20,10.90
2011,08,17,02,21,10.90
2011,08,17,02,22,11.00
2011,08,17,02,23,11.00
2011,08,17,02,24,11.00
2011,08,17,02,25,11.00
2011,08,17,02,26,10.90
2011,08,17,02,27,10.90
2011,08,17,02,28,10.90
2011,08,17,02,29,10.90
2011,08,17,02,30,10.90
2011,08,17,02,31,10.90
2011,08,17,02,32,10.90
2011,08,17,02,33,10.90
2011,08,17,02,34,10.90
2011,08,17,02,35,10.90
2011,08,17,02,36,10.90
2011,08,17,02,37,10.90
2011,08,17,02,38,10.80
2011,08,17,02,39,10.80
2011,08,17,02,40,10.80
2011,08,17,02,41,10.80
2011,08,17,02,42,10.80
2011,08,17,02,43,10.80
2011,08,17,02,44,10.80
2011,08,17,02,45,10.70
2011,08,17,02,46,10.70
2011,08,17,02,47,10.70
2011,08,17,02,48,10.70
2011,08,17,02,49,10.70
2011,08,17,02,50,10.70
2011,08,17,02,51,10.60
2011,08,17,02,52,10.60
2011,08,17,02,53,10.60
2011,08,17,02,54,10.60
2011,08,17,02,55,10.60
2011,08,17,02,56,10.50
2011,08,17,02,57,10.50
2011,08,17,02,58,10.50
2011,08,17,02,59,10.50
2011,08,17,03,00,10.50
2011,08,17,03,01,10.50
2011,08,17,03,02,10.40
2011,08,17,03,03,10.50
2011,08,17,03,04,10.40
2011,08,17,03,05,10.40
2011,08,17,03,06,10.40
2011,08,17,03,07,10.40
2011,08,17,03,08,10.40
2011,08,17,03,09,10.40
2011,08,17,03,10,10.40
2011,08,17,03,11,10.40
2011,08,17,03,12,10.50
2011,08,17,03,13,10.50
2011,08,17,03,14,10.50
2011,08,17,03,15,10.60
2011,08,17,03,16,10.60
2011,08,17,03,17,10.60
2011,08,17,03,18,10.70
2011,08,17,03,19,10.80
2011,08,17,03,20,10.80
2011,08,17,03,21,10.80
2011,08,17,03,22,10.80
2011,08,17,03,23,10.90
2011,08,17,03,24,10.90
2011,08,17,03,25,10.90
2011,08,17,03,26,10.90
2011,08,17,03,27,10.90
2011,08,17,03,28,10.90
2011,08,17,03,29,10.90
2011,08,17,03,30,11.00
2011,08,17,03,31,11.00
2011,08,17,03,32,11.00
2011,08,17,03,33,11.10
2011,08,17,03,34,11.10
2011,08,17,03,35,11.10
2011,08,17,03,36,11.10
2011,08,17,03,37,11.10
2011,08,17,03,38,11.10
2011,08,17,03,39,11.10
2011,08,17,03,40,11.20
2011,08,17,03,41,11.20
2011,08,17,03,42,11.20
2011,08,17,03,43,11.20
2011,08,17,03,44,11.20
2011,08,17,03,45,11.20
2011,08,17,03,46,11.30
2011,08,17,03,47,11.30
2011,08,17,03,48,11.30
2011,08,17,03,49,11.30
2011,08,17,03,50,11.20
2011,08,17,03,51,11.30
2011,08,17,03,52,11.30
2011,08,17,03,53,11.30
2011,08,17,03,54,11.40
2011,08,17,03,55,11.40
2011,08,17,03,56,11.40
2011,08,17,03,57,11.40
2011,08,17,03,58,11.40
2011,08,17,03,59,11.50
2011,08,17,04,00,11.50
2011,08,17,04,01,11.40
2011,08,17,04,02,11.50
2011,08,17,04,03,11.50
2011,08,17,04,04,11.50
2011,08,17,04,05,11.50
2011,08,17,04,06,11.50
2011,08,17,04,07,11.50
2011,08,17,04,08,11.60
2011,08,17,04,09,11.60
2011,08,17,04,10,11.60
2011,08,17,04,11,11.70
2011,08,17,04,12,11.70
2011,08,17,04,13,11.60
2011,08,17,04,14,11.60
2011,08,17,04,15,11.60
2011,08,17,04,16,11.60
2011,08,17,04,17,11.60
2011,08,17,04,18,11.60
2011,08,17,04,19,11.60
2011,08,17,04,20,11.60
2011,08,17,04,21,11.50
2011,08,17,04,22,11.50
2011,08,17,04,23,11.50
2011,08,17,04,24,11.40
2011,08,17,04,25,11.40
2011,08,17,04,26,11.40
2011,08,17,04,27,11.30
2011,08,17,04,28,11.30
2011,08,17,04,29,11.30
2011,08,17,04,30,11.20
2011,08,17,04,31,11.20
2011,08,17,04,32,11.20
2011,08,17,04,33,11.20
2011,08,17,04,34,11.10
2011,08,17,04,35,11.10
2011,08,17,04,36,11.10
2011,08,17,04,37,11.10
2011,08,17,04,38,11.00
2011,08,17,04,39,11.00
2011,08,17,04,40,11.00
2011,08,17,04,41,11.00
2011,08,17,04,42,11.00
2011,08,17,04,43,11.00
2011,08,17,04,44,11.00
2011,08,17,04,45,11.10
2011,08,17,04,46,11.10
2011,08,17,04,47,11.10
2011,08,17,04,48,11.10
2011,08,17,04,49,11.20
2011,08,17,04,50,11.20
2011,08,17,04,51,11.20
2011,08,17,04,52,11.20
2011,08,17,04,53,11.20
2011,08,17,04,54,11.20
2011,08,17,04,55,11.20
2011,08,17,04,56,11.20
2011,08,17,04,57,11.20
2011,08,17,04,58,11.20
2011,08,17,04,59,11.20
2011,08,17,05,00,11.10
2011,08,17,05,01,11.10
2011,08,17,05,02,11.10
2011,08,17,05,03,11.10
2011,08,17,05,04,11.10
2011,08,17,05,05,11.10
2011,08,17,05,06,11.10
2011,08,17,05,07,11.10
2011,08,17,05,08,11.10
2011,08,17,05,09,11.00
2011,08,17,05,10,11.00
2011,08,17,05,11,11.00
2011,08,17,05,12,11.00
2011,08,17,05,13,11.00
2011,08,17,05,14,11.00
2011,08,17,05,15,11.00
2011,08,17,05,16,10.90
2011,08,17,05,17,10.90
2011,08,17,05,18,10.90
2011,08,17,05,19,10.90
2011,08,17,05,20,10.90
2011,08,17,05,21,10.90
2011,08,17,05,22,10.90
2011,08,17,05,23,10.90
2011,08,17,05,24,10.80
2011,08,17,05,25,10.80
2011,08,17,05,26,10.80
2011,08,17,05,27,10.80
2011,08,17,05,28,10.80
2011,08,17,05,29,10.70
2011,08,17,05,30,10.70
2011,08,17,05,31,10.70
2011,08,17,05,32,10.70
2011,08,17,05,33,10.60
2011,08,17,05,34,10.60
2011,08,17,05,35,10.60
2011,08,17,05,36,10.60
2011,08,17,05,37,10.60
2011,08,17,05,38,10.60
2011,08,17,05,39,10.60
2011,08,17,05,40,10.60
2011,08,17,05,41,10.60
2011,08,17,05,42,10.70
2011,08,17,05,43,10.70
2011,08,17,05,44,10.70
2011,08,17,05,45,10.70
2011,08,17,05,46,10.70
2011,08,17,05,47,10.70
2011,08,17,05,48,10.70
2011,08,17,05,49,10.70
2011,08,17,05,50,10.70
2011,08,17,05,51,10.70
2011,08,17,05,52,10.70
2011,08,17,05,53,10.70
2011,08,17,05,54,10.60
2011,08,17,05,55,10.60
2011,08,17,05,56,10.60
2011,08,17,05,57,10.60
2011,08,17,05,58,10.60
2011,08,17,05,59,10.50
2011,08,17,06,00,10.50
2011,08,17,06,01,10.50
2011,08,17,06,02,10.40
2011,08,17,06,03,10.40
2011,08,17,06,04,10.40
2011,08,17,06,05,10.40
2011,08,17,06,06,10.30
2011,08,17,06,07,10.30
2011,08,17,06,08,10.30
2011,08,17,06,09,10.20
2011,08,17,06,10,10.20
2011,08,17,06,11,10.20
2011,08,17,06,12,10.10
2011,08,17,06,13,10.10
2011,08,17,06,14,10.10
2011,08,17,06,15,10.10
2011,08,17,06,16,10.10
2011,08,17,06,17,10.00
2011,08,17,06,18,10.00
2011,08,17,06,19,10.00
2011,08,17,06,20,10.00
2011,08,17,06,21,10.00
2011,08,17,06,22,10.10
2011,08,17,06,23,10.10
2011,08,17,06,24,10.10
2011,08,17,06,25,10.10
2011,08,17,06,26,10.10
2011,08,17,06,27,10.10
2011,08,17,06,28,10.10
2011,08,17,06,29,10.00
2011,08,17,06,30,10.00
2011,08,17,06,31,10.00
2011,08,17,06,32,10.00
2011,08,17,06,33,10.00
2011,08,17,06,34,10.00
2011,08,17,06,35,10.00
2011,08,17,06,36,10.00
2011,08,17,06,37,10.10
2011,08,17,06,38,10.10
2011,08,17,06,39,10.20
2011,08,17,06,40,10.20
2011,08,17,06,41,10.20
2011,08,17,06,42,10.30
2011,08,17,06,43,10.30
2011,08,17,06,44,10.30
2011,08,17,06,45,10.30
2011,08,17,06,46,10.30
2011,08,17,06,47,10.40
2011,08,17,06,48,10.40
2011,08,17,06,49,10.50
2011,08,17,06,50,10.50
2011,08,17,06,51,10.60
2011,08,17,06,52,10.60
2011,08,17,06,53,10.60
2011,08,17,06,54,10.70
2011,08,17,06,55,10.70
2011,08,17,06,56,10.70
2011,08,17,06,57,10.70
2011,08,17,06,58,10.80
2011,08,17,06,59,10.80
2011,08,17,07,00,10.80
2011,08,17,07,01,10.80
2011,08,17,07,02,10.90
2011,08,17,07,03,10.90
2011,08,17,07,04,10.90
2011,08,17,07,05,11.00
2011,08,17,07,06,11.00
2011,08,17,07,07,11.10
2011,08,17,07,08,11.10
2011,08,17,07,09,11.20
2011,08,17,07,10,11.20
2011,08,17,07,11,11.20
2011,08,17,07,12,11.30
2011,08,17,07,13,11.30
2011,08,17,07,14,11.40
2011,08,17,07,15,11.40
2011,08,17,07,16,11.40
2011,08,17,07,17,11.50
2011,08,17,07,18,11.60
2011,08,17,07,19,11.60
2011,08,17,07,20,11.60
2011,08,17,07,21,11.70
2011,08,17,07,22,11.70
2011,08,17,07,23,11.80
2011,08,17,07,24,11.80
2011,08,17,07,25,11.90
2011,08,17,07,26,11.90
2011,08,17,07,27,12.00
2011,08,17,07,28,12.00
2011,08,17,07,29,12.10
2011,08,17,07,30,12.10
2011,08,17,07,31,12.20
2011,08,17,07,32,12.20
2011,08,17,07,33,12.30
2011,08,17,07,34,12.30
2011,08,17,07,35,12.40
2011,08,17,07,36,12.50
2011,08,17,07,37,12.50
2011,08,17,07,38,12.60
2011,08,17,07,39,12.70
2011,08,17,07,40,12.80
2011,08,17,07,41,12.80
2011,08,17,07,42,12.90
2011,08,17,07,43,12.90
2011,08,17,07,44,12.90
2011,08,17,07,45,12.90
2011,08,17,07,46,13.00
2011,08,17,07,47,13.00
2011,08,17,07,48,13.00
2011,08,17,07,49,13.00
2011,08,17,07,50,13.10
2011,08,17,07,51,13.10
2011,08,17,07,52,13.10
2011,08,17,07,53,13.10
2011,08,17,07,54,13.20
2011,08,17,07,55,13.20
2011,08,17,07,56,13.30
2011,08,17,07,57,13.40
2011,08,17,07,58,13.40
2011,08,17,07,59,13.50
2011,08,17,08,00,13.60
2011,08,17,08,01,13.70
2011,08,17,08,02,13.80
2011,08,17,08,03,13.90
2011,08,17,08,04,14.00
2011,08,17,08,05,14.10
2011,08,17,08,06,14.20
2011,08,17,08,07,14.30
2011,08,17,08,08,14.40
2011,08,17,08,09,14.60
2011,08,17,08,10,14.70
2011,08,17,08,11,14.80
2011,08,17,08,12,15.00
2011,08,17,08,13,15.10
2011,08,17,08,14,15.20
2011,08,17,08,15,15.40
2011,08,17,08,16,15.50
2011,08,17,08,17,15.70
2011,08,17,08,18,15.80
2011,08,17,08,19,15.90
2011,08,17,08,20,16.00
2011,08,17,08,21,16.10
2011,08,17,08,22,16.20
2011,08,17,08,23,16.30
2011,08,17,08,24,16.40
2011,08,17,08,25,16.50
2011,08,17,08,26,16.50
2011,08,17,08,27,16.60
2011,08,17,08,28,16.60
2011,08,17,08,29,16.70
2011,08,17,08,30,16.70
2011,08,17,08,31,16.80
2011,08,17,08,32,16.80
2011,08,17,08,33,16.80
2011,08,17,08,34,16.90
2011,08,17,08,35,16.90
2011,08,17,08,36,16.90
2011,08,17,08,37,16.80
2011,08,17,08,38,16.80
2011,08,17,08,39,16.80
2011,08,17,08,40,16.90
2011,08,17,08,41,16.90
2011,08,17,08,42,16.90
2011,08,17,08,43,16.90
2011,08,17,08,44,16.90
2011,08,17,08,45,16.90
2011,08,17,08,46,16.90
2011,08,17,08,47,16.90
2011,08,17,08,48,16.90
2011,08,17,08,49,17.00
2011,08,17,08,50,17.00
2011,08,17,08,51,17.00
2011,08,17,08,52,17.00
2011,08,17,08,53,17.00
2011,08,17,08,54,17.00
2011,08,17,08,55,17.00
2011,08,17,08,56,17.10
2011,08,17,08,57,17.10
2011,08,17,08,58,17.10
2011,08,17,08,59,17.10
2011,08,17,09,00,17.20
2011,08,17,09,01,17.20
2011,08,17,09,02,17.20
2011,08,17,09,03,17.20
2011,08,17,09,04,17.20
2011,08,17,09,05,17.20
2011,08,17,09,06,17.20
2011,08,17,09,07,17.30
2011,08,17,09,08,17.30
2011,08,17,09,09,17.30
2011,08,17,09,10,17.30
2011,08,17,09,11,17.30
2011,08,17,09,12,17.30
2011,08,17,09,13,17.30
2011,08,17,09,14,17.30
2011,08,17,09,15,17.30
2011,08,17,09,16,17.40
2011,08,17,09,17,17.40
2011,08,17,09,18,17.40
2011,08,17,09,19,17.40
2011,08,17,09,20,17.40
2011,08,17,09,21,17.50
2011,08,17,09,22,17.50
2011,08,17,09,23,17.60
2011,08,17,09,24,17.60
2011,08,17,09,25,17.60
2011,08,17,09,26,17.60
2011,08,17,09,27,17.70
2011,08,17,09,28,17.70
2011,08,17,09,29,17.80
2011,08,17,09,30,17.80
2011,08,17,09,31,17.90
2011,08,17,09,32,17.90
2011,08,17,09,33,17.90
2011,08,17,09,34,17.80
2011,08,17,09,35,17.80
2011,08,17,09,36,17.80
2011,08,17,09,37,17.80
2011,08,17,09,38,17.80
2011,08,17,09,39,17.80
2011,08,17,09,40,17.80
2011,08,17,09,41,17.80
2011,08,17,09,42,17.80
2011,08,17,09,43,17.90
2011,08,17,09,44,17.90
2011,08,17,09,45,18.00
2011,08,17,09,46,18.10
2011,08,17,09,47,18.10
2011,08,17,09,48,18.20
2011,08,17,09,49,18.30
2011,08,17,09,50,18.30
2011,08,17,09,51,18.40
2011,08,17,09,52,18.50
2011,08,17,09,53,18.60
2011,08,17,09,54,18.70
2011,08,17,09,55,18.70
2011,08,17,09,56,18.70
2011,08,17,09,57,18.70
2011,08,17,09,58,18.80
2011,08,17,09,59,18.80
2011,08,17,10,00,18.80
2011,08,17,10,01,18.80
2011,08,17,10,02,18.70
2011,08,17,10,03,18.70
2011,08,17,10,04,18.70
2011,08,17,10,05,18.70
2011,08,17,10,06,18.70
2011,08,17,10,07,18.70
2011,08,17,10,08,18.70
2011,08,17,10,09,18.70
2011,08,17,10,10,18.70
2011,08,17,10,11,18.80
2011,08,17,10,12,18.80
2011,08,17,10,13,18.80
2011,08,17,10,14,18.80
2011,08,17,10,15,18.90
2011,08,17,10,16,18.90
2011,08,17,10,17,18.90
2011,08,17,10,18,18.90
2011,08,17,10,19,18.90
2011,08,17,10,20,18.90
2011,08,17,10,21,18.80
2011,08,17,10,22,18.80
2011,08,17,10,23,18.70
2011,08,17,10,24,18.70
2011,08,17,10,25,18.70
2011,08,17,10,26,18.60
2011,08,17,10,27,18.60
2011,08,17,10,28,18.60
2011,08,17,10,29,18.60
2011,08,17,10,30,18.60
2011,08,17,10,31,18.60
2011,08,17,10,32,18.60
2011,08,17,10,33,18.60
2011,08,17,10,34,18.60
2011,08,17,10,35,18.60
2011,08,17,10,36,18.70
2011,08,17,10,37,18.70
2011,08,17,10,38,18.70
2011,08,17,10,39,18.70
2011,08,17,10,40,18.70
2011,08,17,10,41,18.80
2011,08,17,10,42,18.80
2011,08,17,10,43,18.80
2011,08,17,10,44,18.90
2011,08,17,10,45,18.90
2011,08,17,10,46,18.90
2011,08,17,10,47,18.90
2011,08,17,10,48,18.90
2011,08,17,10,49,18.90
2011,08,17,10,50,18.90
2011,08,17,10,51,18.90
2011,08,17,10,52,18.90
2011,08,17,10,53,19.00
2011,08,17,10,54,19.00
2011,08,17,10,55,19.10
2011,08,17,10,56,19.10
2011,08,17,10,57,19.10
2011,08,17,10,58,19.20
2011,08,17,10,59,19.20
2011,08,17,11,00,19.30
2011,08,17,11,01,19.30
2011,08,17,11,02,19.30
2011,08,17,11,03,19.30
2011,08,17,11,04,19.30
2011,08,17,11,05,19.20
2011,08,17,11,06,19.20
2011,08,17,11,07,19.30
2011,08,17,11,08,19.30
2011,08,17,11,09,19.30
2011,08,17,11,10,19.40
2011,08,17,11,11,19.40
2011,08,17,11,12,19.50
2011,08,17,11,13,19.50
2011,08,17,11,14,19.60
2011,08,17,11,15,19.60
2011,08,17,11,16,19.70
2011,08,17,11,17,19.70
2011,08,17,11,18,19.70
2011,08,17,11,19,19.80
2011,08,17,11,20,19.90
2011,08,17,11,21,20.00
2011,08,17,11,22,20.10
2011,08,17,11,23,20.00
2011,08,17,11,24,20.00
2011,08,17,11,25,19.90
2011,08,17,11,26,19.90
2011,08,17,11,27,19.80
2011,08,17,11,28,19.80
2011,08,17,11,29,19.80
2011,08,17,11,30,19.80
2011,08,17,11,31,19.70
2011,08,17,11,32,19.70
2011,08,17,11,33,19.70
2011,08,17,11,34,19.70
2011,08,17,11,35,19.70
2011,08,17,11,36,19.70
2011,08,17,11,37,19.80
2011,08,17,11,38,19.70
2011,08,17,11,39,19.70
2011,08,17,11,40,19.70
2011,08,17,11,41,19.70
2011,08,17,11,42,19.70
2011,08,17,11,43,19.80
2011,08,17,11,44,19.80
2011,08,17,11,45,19.70
2011,08,17,11,46,19.80
2011,08,17,11,47,19.70
2011,08,17,11,48,19.60
2011,08,17,11,49,19.60
2011,08,17,11,50,19.50
2011,08,17,11,51,19.50
2011,08,17,11,52,19.60
2011,08,17,11,53,19.60
2011,08,17,11,54,19.60
2011,08,17,11,55,19.70
2011,08,17,11,56,19.70
2011,08,17,11,57,19.70
2011,08,17,11,58,19.60
2011,08,17,11,59,19.60
2011,08,17,12,00,19.60
2011,08,17,12,01,19.70
2011,08,17,12,02,19.60
2011,08,17,12,03,19.60
2011,08,17,12,04,19.60
2011,08,17,12,05,19.50
2011,08,17,12,06,19.50
2011,08,17,12,07,19.50
2011,08,17,12,08,19.50
2011,08,17,12,09,19.40
2011,08,17,12,10,19.40
2011,08,17,12,11,19.50
2011,08,17,12,12,19.50
2011,08,17,12,13,19.60
2011,08,17,12,14,19.40
2011,08,17,12,15,19.30
2011,08,17,12,16,19.20
2011,08,17,12,17,19.20
2011,08,17,12,18,19.10
2011,08,17,12,19,19.10
2011,08,17,12,20,19.10
2011,08,17,12,21,19.20
2011,08,17,12,22,19.20
2011,08,17,12,23,19.30
2011,08,17,12,24,19.30
2011,08,17,12,25,19.40
2011,08,17,12,26,19.40
2011,08,17,12,27,19.40
2011,08,17,12,28,19.40
2011,08,17,12,29,19.50
2011,08,17,12,30,19.50
2011,08,17,12,31,19.50
2011,08,17,12,32,19.40
2011,08,17,12,33,19.40
2011,08,17,12,34,19.40
2011,08,17,12,35,19.30
2011,08,17,12,36,19.30
2011,08,17,12,37,19.30
2011,08,17,12,38,19.30
2011,08,17,12,39,19.20
2011,08,17,12,40,19.20
2011,08,17,12,41,19.20
2011,08,17,12,42,19.20
2011,08,17,12,43,19.20
2011,08,17,12,44,19.30
2011,08,17,12,45,19.30
2011,08,17,12,46,19.40
2011,08,17,12,47,19.50
2011,08,17,12,48,19.50
2011,08,17,12,49,19.60
2011,08,17,12,50,19.60
2011,08,17,12,51,19.50
2011,08,17,12,52,19.50
2011,08,17,12,53,19.50
2011,08,17,12,54,19.50
2011,08,17,12,55,19.50
2011,08,17,12,56,19.60
2011,08,17,12,57,19.60
2011,08,17,12,58,19.70
2011,08,17,12,59,19.70
2011,08,17,13,00,19.80
2011,08,17,13,01,19.90
2011,08,17,13,02,19.90
2011,08,17,13,03,20.00
2011,08,17,13,04,20.00
2011,08,17,13,05,20.00
2011,08,17,13,06,19.90
2011,08,17,13,07,19.90
2011,08,17,13,08,19.90
2011,08,17,13,09,19.90
2011,08,17,13,10,19.90
2011,08,17,13,11,20.00
2011,08,17,13,12,20.00
2011,08,17,13,13,20.10
2011,08,17,13,14,20.10
2011,08,17,13,15,20.10
2011,08,17,13,16,20.10
2011,08,17,13,17,20.10
2011,08,17,13,18,20.10
2011,08,17,13,19,20.10
2011,08,17,13,20,20.10
2011,08,17,13,21,20.10
2011,08,17,13,22,20.10
2011,08,17,13,23,20.10
2011,08,17,13,24,20.10
2011,08,17,13,25,20.10
2011,08,17,13,26,20.10
2011,08,17,13,27,20.00
2011,08,17,13,28,20.00
2011,08,17,13,29,19.90
2011,08,17,13,30,19.90
2011,08,17,13,31,19.90
2011,08,17,13,32,19.90
2011,08,17,13,33,20.00
2011,08,17,13,34,20.10
2011,08,17,13,35,20.20
2011,08,17,13,36,20.20
2011,08,17,13,37,20.20
2011,08,17,13,38,20.20
2011,08,17,13,39,20.10
2011,08,17,13,40,20.10
2011,08,17,13,41,20.20
2011,08,17,13,42,20.20
2011,08,17,13,43,20.20
2011,08,17,13,44,20.10
2011,08,17,13,45,20.10
2011,08,17,13,46,20.10
2011,08,17,13,47,20.10
2011,08,17,13,48,20.10
2011,08,17,13,49,20.20
2011,08,17,13,50,20.20
2011,08,17,13,51,20.20
2011,08,17,13,52,20.20
2011,08,17,13,53,20.20
2011,08,17,13,54,20.30
2011,08,17,13,55,20.30
2011,08,17,13,56,20.20
2011,08,17,13,57,20.10
2011,08,17,13,58,20.10
2011,08,17,13,59,20.10
2011,08,17,14,00,20.00
2011,08,17,14,01,19.90
2011,08,17,14,02,19.90
2011,08,17,14,03,20.00
2011,08,17,14,04,20.00
2011,08,17,14,05,20.00
2011,08,17,14,06,20.00
2011,08,17,14,07,20.00
2011,08,17,14,08,20.00
2011,08,17,14,09,20.00
2011,08,17,14,10,20.00
2011,08,17,14,11,20.10
2011,08,17,14,12,20.10
2011,08,17,14,13,20.20
2011,08,17,14,14,20.30
2011,08,17,14,15,20.40
2011,08,17,14,16,20.50
2011,08,17,14,17,20.60
2011,08,17,14,18,20.60
2011,08,17,14,19,20.70
2011,08,17,14,20,20.70
2011,08,17,14,21,20.70
2011,08,17,14,22,20.70
2011,08,17,14,23,20.80
2011,08,17,14,24,20.80
2011,08,17,14,25,20.80
2011,08,17,14,26,20.80
2011,08,17,14,27,20.90
2011,08,17,14,28,20.90
2011,08,17,14,29,20.80
2011,08,17,14,30,20.80
2011,08,17,14,31,20.80
2011,08,17,14,32,20.80
2011,08,17,14,33,20.70
2011,08,17,14,34,20.70
2011,08,17,14,35,20.70
2011,08,17,14,36,20.60
2011,08,17,14,37,20.50
2011,08,17,14,38,20.50
2011,08,17,14,39,20.50
2011,08,17,14,40,20.60
2011,08,17,14,41,20.60
2011,08,17,14,42,20.60
2011,08,17,14,43,20.70
2011,08,17,14,44,20.70
2011,08,17,14,45,20.80
2011,08,17,14,46,20.80
2011,08,17,14,47,20.80
2011,08,17,14,48,20.80
2011,08,17,14,49,20.90
2011,08,17,14,50,20.90
2011,08,17,14,51,20.90
2011,08,17,14,52,20.90
2011,08,17,14,53,20.90
2011,08,17,14,54,20.90
2011,08,17,14,55,21.00
2011,08,17,14,56,21.10
2011,08,17,14,57,21.10
2011,08,17,14,58,21.20
2011,08,17,14,59,21.30
2011,08,17,15,00,21.30
2011,08,17,15,01,21.40
2011,08,17,15,02,21.30
2011,08,17,15,03,21.20
2011,08,17,15,04,21.20
2011,08,17,15,05,21.10
2011,08,17,15,06,21.10
2011,08,17,15,07,21.10
2011,08,17,15,08,21.10
2011,08,17,15,09,21.10
2011,08,17,15,10,21.00
2011,08,17,15,11,21.00
2011,08,17,15,12,20.90
2011,08,17,15,13,21.00
2011,08,17,15,14,21.00
2011,08,17,15,15,21.00
2011,08,17,15,16,21.10
2011,08,17,15,17,21.10
2011,08,17,15,18,21.20
2011,08,17,15,19,21.30
2011,08,17,15,20,21.40
2011,08,17,15,21,21.50
2011,08,17,15,22,21.60
2011,08,17,15,23,21.60
2011,08,17,15,24,21.70
2011,08,17,15,25,21.70
2011,08,17,15,26,21.80
2011,08,17,15,27,21.80
2011,08,17,15,28,21.80
2011,08,17,15,29,21.80
2011,08,17,15,30,21.90
2011,08,17,15,31,21.90
2011,08,17,15,32,22.00
2011,08,17,15,33,22.00
2011,08,17,15,34,21.90
2011,08,17,15,35,21.90
2011,08,17,15,36,21.90
2011,08,17,15,37,21.90
2011,08,17,15,38,21.90
2011,08,17,15,39,21.90
2011,08,17,15,40,21.80
2011,08,17,15,41,21.80
2011,08,17,15,42,21.70
2011,08,17,15,43,21.70
2011,08,17,15,44,21.80
2011,08,17,15,45,21.80
2011,08,17,15,46,21.70
2011,08,17,15,47,21.70
2011,08,17,15,48,21.70
2011,08,17,15,49,21.70
2011,08,17,15,50,21.70
2011,08,17,15,51,21.80
2011,08,17,15,52,21.80
2011,08,17,15,53,21.90
2011,08,17,15,54,21.90
2011,08,17,15,55,21.80
2011,08,17,15,56,21.80
2011,08,17,15,57,21.80
2011,08,17,15,58,21.90
2011,08,17,15,59,21.90
2011,08,17,16,00,21.90
2011,08,17,16,01,21.90
2011,08,17,16,02,21.90
2011,08,17,16,03,21.90
2011,08,17,16,04,21.90
2011,08,17,16,05,21.90
2011,08,17,16,06,21.80
2011,08,17,16,07,21.80
2011,08,17,16,08,21.80
2011,08,17,16,09,21.70
2011,08,17,16,10,21.70
2011,08,17,16,11,21.70
2011,08,17,16,12,21.70
2011,08,17,16,13,21.70
2011,08,17,16,14,21.80
2011,08,17,16,15,21.90
2011,08,17,16,16,21.90
2011,08,17,16,17,22.00
2011,08,17,16,18,22.10
2011,08,17,16,19,22.10
2011,08,17,16,20,22.20
2011,08,17,16,21,22.20
2011,08,17,16,22,22.30
2011,08,17,16,23,22.30
2011,08,17,16,24,22.30
2011,08,17,16,25,22.30
2011,08,17,16,26,22.30
2011,08,17,16,27,22.30
2011,08,17,16,28,22.30
2011,08,17,16,29,22.30
2011,08,17,16,30,22.30
2011,08,17,16,31,22.30
2011,08,17,16,32,22.30
2011,08,17,16,33,22.40
2011,08,17,16,34,22.40
2011,08,17,16,35,22.40
2011,08,17,16,36,22.40
2011,08,17,16,37,22.40
2011,08,17,16,38,22.40
2011,08,17,16,39,22.40
2011,08,17,16,40,22.50
2011,08,17,16,41,22.50
2011,08,17,16,42,22.50
2011,08,17,16,43,22.50
2011,08,17,16,44,22.40
2011,08,17,16,45,22.40
2011,08,17,16,46,22.30
2011,08,17,16,47,22.30
2011,08,17,16,48,22.20
2011,08,17,16,49,22.20
2011,08,17,16,50,22.20
2011,08,17,16,51,22.10
2011,08,17,16,52,22.10
2011,08,17,16,53,22.10
2011,08,17,16,54,22.20
2011,08,17,16,55,22.20
2011,08,17,16,56,22.30
2011,08,17,16,57,22.30
2011,08,17,16,58,22.30
2011,08,17,16,59,22.30
2011,08,17,17,00,22.40
2011,08,17,17,01,22.40
2011,08,17,17,02,22.40
2011,08,17,17,03,22.40
2011,08,17,17,04,22.40
2011,08,17,17,05,22.40
2011,08,17,17,06,22.40
2011,08,17,17,07,22.30
2011,08,17,17,08,22.30
2011,08,17,17,09,22.30
2011,08,17,17,10,22.20
2011,08,17,17,11,22.20
2011,08,17,17,12,22.20
2011,08,17,17,13,22.20
2011,08,17,17,14,22.20
2011,08,17,17,15,22.10
2011,08,17,17,16,22.00
2011,08,17,17,17,21.90
2011,08,17,17,18,21.90
2011,08,17,17,19,21.80